星链-4096 (STARLINK-4096 )

导读 | 豆包AI

STARLINK-4096是美国太空探索技术公司(SpaceX)星链互联网卫星组网的成员,于2022年7月17日发射入轨,属于星链项目的第二代卫星批次,旨在推进全球低轨卫星互联网覆盖,为全球用户提供高速低延迟的网络服务,依托近地轨道部署,是星链大规模星座构建中的重要组成单元。

基本信息
目录编号:
53160
目录名称:
STARLINK-4096
国际标识:
2022-083AE
轨道中心:
EARTH
卫星名称:
星链-4096
卫星全名:
星链-4096 (STARLINK-4096 )
卫星状态:
在轨 (已飞行1337 天)
发射日期:
2022-07-17 UTC
国别 :
美国 (US)
星等 :
--
轨道信息
数据来源 国际轨道数据
星历时间: 2026-03-14T21:19:36+0800
13小时前
查看轨道信息
半长轴: 6917.877km
偏心率: 0.0001184
轨道倾角: 53.216°
近地点辐角 82.018°
升交点赤经 142.277°
平近点角 278.095°
近地点: 538.92km
远地点: 540.56km
周期: 95.437分钟
每日圈数: 15.088414
详细信息
固有亮度:
5
最大亮度:
2.5
卫星平台:
Starlink v1.5
覆盖范围:
全球
运营商:
太空探索技术公司
运营商所在国:
美国
制造商(研发单位):
太空探索技术公司
制造商所在国:
美国
使用方式:
暂无
卫星简介
星链(Starlink)计划是由太空探索技术公司(SpaceX)提出的一个巨型低轨卫星互联网星座项目,计划在2019年至2024年间在太空搭建由约1.2万颗卫星组成的“星链”网络,其中1584颗将部署在地球上空550千米处的近地轨道,并从2020年开始工作。该卫星仍在工作。
2D轨道图
3D轨道图
轨道高度分析图
轨道倾角分析图
轨道综合分析图
查看轨道综合分析图